[Date Prev][Date Next][Thread Prev][Thread Next] - [Date Index][Thread Index][Author Index]

2 Line ISS Keps 11-13



ISS
1 25544U 98067A   04318.32939896  .00024884  00000-0  19896-3 0  1292
2 25544  51.6362 284.6841 0008401 351.5287 168.3717 15.70898728341749
----
Via the sarex mailing list at AMSAT.ORG courtesy of AMSAT-NA.
To unsubscribe, send "unsubscribe sarex" to Majordomo@amsat.org



AMSAT Top AMSAT Home